Weather in Uzbekistan

Uzbekistan     39°23′38″N   63°56′10″E
temp.,
°C
wind,
m/s
gust,
m/s
humid.,
%
clouds,
%
prec.,
mm/h
press.,
hPa
HPBL,
m
23 april, fri
fri2323:00+19ne47305 0.0 1022160
02:00+16ne5935100 0.0 1021216
05:00+15ne58395 0.0 1020144
08:00+16e46345 0.0 1021258
11:00+22e33215 0.0 1021584
14:00+26se121244 0.0 10181408
17:00+28ene22105 0.0 10171610
20:00+26ne34125 0.0 101758
24 april, sat
sat2423:00+24ne1214100 0.0 101712
02:00+21ne3317100 0.0 101618
05:00+19ese112491 0.0 101611
08:00+21ssw1121100 0.0 101867
11:00+25nw231564 0.0 1018703
14:00+29n3397 0.0 10171658
17:00+29n33942 0.0 10161593
20:00+28n3513100 0.0 1017104
25 april, sun
sun2523:00+25ne4514100 0.0 101763
02:00+23ene4518100 0.0 101666
05:00+21ene44195 0.0 101644
08:00+23ene34196 0.0 1018160
11:00+28ene441496 0.0 1018771
14:00+31nne451494 0.0 10162189
17:00+32nne771398 0.0 10152279
20:00+29nne7111773 0.0 1016429
26 april, mon
mon2623:00+26nne51117100 0.0 1016229
02:00+24nne482399 0.0 1015145
05:00+23nne51025100 0.0 1014168
08:00+24ne4624100 0.0 1015200
11:00+29nne441635 0.0 1014788
14:00+33ene5685 0.0 10121689
17:00+34ene6771 0.0 10102063
20:00+31ene58140 0.0 1010205
27 april, tue
tue2723:00+27ne58202 0.0 1010160
02:00+24ne46245 0.0 100988
05:00+22ne45275 0.0 100964
08:00+24ene46261 0.0 1010212
11:00+30ene33200 0.0 1010625
14:00+33nne01120 0.0 10081738
17:00+34nne1190 0.0 10072040
20:00+32ne11110 0.0 100713